Location: ?????????
(54.7630°N, 39.4991°E)
Time: 14:58:36
(UTC+00:00)

Cosmos 304 Rocket - Pass Details

Date: 14 April 2026
Orbit: 668 x 676 km, 74.0° (Epoch: 16 May)

Event Time Altitude Azimuth Distance (km) Brightness Sun altitude
Rises 21:05:39 0° 329° (NNW) 3,033 8.1 -25.5°
Reaches altitude 10° 21:08:00 10° 324° (NW) 2,116 7.0 -25.5°
Enters shadow 21:12:03 46° 272° (W) 914 4.3 -25.5°
